Goderich, Ontario

2:24 PM EDT on May 26, 2017 (GMT -0400)
Goderich

Weather History for CWGD - November, 2012

Change the Weather History Date:

Thursday, November 22, 2012

  Actual Average (KP58) Record (KP58)
Temperature  
Mean Temperature 49 °F -  
Max Temperature 57 °F 41 °F 63 °F (2010)
Min Temperature 41 °F 32 °F 19 °F (2008)
Degree Days  
Heating Degree Days 16    
Moisture  
Dew Point 41 °F    
Average Humidity 73    
Maximum Humidity 94    
Minimum Humidity 53    
Precipitation  
Precipitation 0.02 in - - ()
Sea Level Pressure  
Sea Level Pressure 30.01 in    
Wind  
Wind Speed 12 mph ()    
Max Wind Speed 23 mph    
Max Gust Speed 34 mph    
Averages and records for this station are not official NWS values.
T = Trace of Precipitation, MM = Missing Value Source: Averaged Metar Reports

Daily Weather History Graph

Daily Weather History Graph

Search for Another Location

Airport or City:

Trip Planner

Search our weather history database for the weather conditions in past years. The results will help you decide how hot, cold, wet, or windy it might be!

Date:

Astronomy

Nov. 22, 2012 Rise Set
Actual Time 7:30 AM EST 4:55 PM EST
Civil Twilight 6:59 AM EST 5:26 PM EST
Nautical Twilight 6:23 AM EST 6:02 PM EST
Astronomical Twilight 5:49 AM EST 6:36 PM EST
Moon 1:49 PM EST (11/22) 1:39 AM EST (11/22)
Length of Visible Light 10h 27m
Length of Day
9h 24m
Waxing Gibbous, 71% of the Moon is Illuminated
Nov 22
Waxing Gibbous
Nov 28
Full
Dec 6
Last Quarter
Dec 13
New
Dec 20
First Quarter

Hourly Weather History & Observations

Time (EST) Temp. Windchill Dew Point Humidity Pressure Visibility Wind Dir Wind Speed Gust Speed Precip Events Conditions
12:00 AM 43.9 °F 38.3 °F 37.2 °F 77% 30.14 in - South 10.4 mph - N/A   Unknown
1:00 AM 44 °F - 38 °F 71% 30.13 in - South 11.5 mph - -  
1:00 AM 43.5 °F 37.5 °F 37.6 °F 80% 30.13 in - South 11.5 mph - N/A   Unknown
2:00 AM 43.9 °F 37.9 °F 38.1 °F 80% 30.12 in - South 11.5 mph - N/A   Unknown
3:00 AM 43.9 °F 37.9 °F 38.8 °F 82% 30.12 in - South 11.5 mph - N/A   Unknown
4:00 AM 42.8 °F 37.5 °F 38.8 °F 86% 30.11 in - South 9.2 mph - N/A   Unknown
5:00 AM 42.8 °F 37.0 °F 39.2 °F 87% 30.11 in - South 10.4 mph - N/A   Unknown
6:00 AM 42.1 °F 35.7 °F 39.0 °F 89% 30.11 in - SSE 11.5 mph - N/A   Unknown
7:00 AM 42 °F - 40 °F 92% 30.10 in - SSE 11.5 mph - -  
7:00 AM 42.1 °F 35.7 °F 40.5 °F 94% 30.10 in - SSE 11.5 mph - N/A   Unknown
8:00 AM 43.7 °F 37.7 °F 41.7 °F 93% 30.10 in - South 11.5 mph - N/A   Unknown
9:00 AM 46.6 °F - 42.6 °F 86% 30.09 in - South 12.7 mph - N/A   Unknown
10:00 AM 48.6 °F - 43.0 °F 81% 30.08 in - South 15.0 mph 20.7 mph N/A   Unknown
11:00 AM 50.7 °F - 43.0 °F 75% 30.06 in - South 15.0 mph 24.2 mph N/A   Unknown
12:00 PM 53.2 °F - 43.5 °F 70% 30.04 in - South 18.4 mph 25.3 mph N/A   Unknown
1:00 PM 55 °F - 44 °F 56% 30.01 in - South 17.3 mph - -  
1:00 PM 55.2 °F - 43.9 °F 66% 30.01 in - South 17.3 mph 25.3 mph N/A   Unknown
2:00 PM 56.5 °F - 44.4 °F 64% 29.98 in - South 17.3 mph 25.3 mph N/A   Unknown
3:00 PM 57.0 °F - 43.5 °F 61% 29.95 in - South 15.0 mph 23.0 mph N/A   Unknown
4:00 PM 56.7 °F - 42.6 °F 59% 29.94 in - South 16.1 mph - N/A   Unknown
5:00 PM 54.0 °F - 42.4 °F 65% 29.93 in - South 16.1 mph 23.0 mph N/A   Unknown
6:00 PM 53.1 °F - 41.4 °F 64% 29.91 in - South 16.1 mph 24.2 mph N/A   Unknown
7:00 PM 53 °F - 41 °F 53% 29.90 in - South 17.3 mph - -  
7:00 PM 53.1 °F - 40.8 °F 63% 29.90 in - South 17.3 mph 26.5 mph N/A   Unknown
8:00 PM 53.1 °F - 40.8 °F 63% 29.87 in - South 18.4 mph 25.3 mph N/A   Unknown
9:00 PM 54.5 °F - 41.2 °F 61% 29.84 in - South 20.7 mph 27.6 mph N/A   Unknown
10:00 PM 54.3 °F - 41.5 °F 62% 29.82 in - South 21.9 mph 33.4 mph N/A   Unknown
11:00 PM 55.4 °F - 40.6 °F 58% 29.79 in - South 23.0 mph 34.5 mph N/A   Unknown